Weather History for London, United Kingdom

Change the Weather History Date:

Thursday, March 28, 2013

  Actual Average Record
Temperature  
Mean Temperature 34 °F -  
Max Temperature 41 °F 56 °F 69 °F (2012)
Min Temperature 28 °F 41 °F 28 °F (2013)
Degree Days  
Heating Degree Days 30    
Moisture  
Dew Point 24 °F    
Average Humidity 64    
Maximum Humidity 93    
Minimum Humidity 37    
Precipitation  
Precipitation 0.00 in - - ()
Sea Level Pressure  
Sea Level Pressure 29.90 in    
Wind  
Wind Speed 6 mph ()    
Max Wind Speed 13 mph    
Max Gust Speed -    
Visibility 6.5 miles    
Events      
Averages and records for this station are not official NWS values.
T = Trace of Precipitation, MM = Missing Value Source: Averaged Metar Reports

Daily Weather History Graph

Daily Weather History Graph

Search for Another Location

Airport:

Trip Planner

Search our weather history database for the weather conditions in past years. The results will help you decide how hot, cold, wet, or windy it might be!

Date:

Astronomy

Mar. 28, 2013 Rise Set
Actual Time 5:46 AM GMT 6:28 PM GMT
Civil Twilight 5:12 AM GMT 7:02 PM GMT
Nautical Twilight 4:32 AM GMT 7:42 PM GMT
Astronomical Twilight 3:49 AM GMT 8:25 PM GMT
Moon 8:19 PM GMT (3/28) 5:53 AM GMT (3/28)
Length of Visible Light 13h 49m
Length of Day
12h 42m
Full, 98% of the Moon is Illuminated
Mar 28
Full
Apr 3
Last Quarter
Apr 10
New
Apr 18
First Quarter
Apr 25
Full

Hourly Weather History & Observations

Time (GMT) Temp. Windchill Dew Point Humidity Pressure Visibility Wind Dir Wind Speed Gust Speed Precip Events Conditions
12:20 AM 32.0 °F 25.6 °F 24.8 °F 75% 29.89 in 6.2 mi NNE 6.9 mph - N/A   Partly Cloudy
12:50 AM 32.0 °F 26.4 °F 24.8 °F 75% 29.89 in - NNE 5.8 mph - N/A   Clear
1:20 AM 32.0 °F 27.5 °F 26.6 °F 80% 29.86 in 6.2 mi NNE 4.6 mph - N/A   Partly Cloudy
1:50 AM 30.2 °F 25.4 °F 26.6 °F 86% 29.86 in 6.2 mi NNE 4.6 mph - N/A   Partly Cloudy
2:20 AM 30.2 °F 25.4 °F 26.6 °F 86% 29.86 in 6.2 mi NNE 4.6 mph - N/A   Scattered Clouds
2:50 AM 31 °F - 26 °F 76% 29.87 in 6 mi NNE 4.6 mph - -   Light Haze
2:50 AM 30.2 °F 25.4 °F 26.6 °F 86% 29.86 in - NNE 4.6 mph - N/A   Clear
3:20 AM 30.2 °F 26.7 °F 26.6 °F 86% 29.86 in 6.2 mi Variable 3.5 mph - N/A   Partly Cloudy
3:50 AM 30.2 °F - 26.6 °F 86% 29.86 in 5.0 mi Variable 2.3 mph - N/A   Partly Cloudy
4:20 AM 30.2 °F 26.7 °F 26.6 °F 86% 29.86 in 5.0 mi North 3.5 mph - N/A   Unknown
4:50 AM 30.2 °F 26.7 °F 26.6 °F 86% 29.86 in 5.0 mi North 3.5 mph - N/A   Partly Cloudy
5:20 AM 30.2 °F 26.7 °F 26.6 °F 86% 29.86 in 5.0 mi Variable 3.5 mph - N/A   Unknown
5:50 AM 29 °F - 26 °F 86% 29.87 in 4 mi NNE 3.5 mph - -   Light Haze
5:50 AM 28.4 °F 24.6 °F 26.6 °F 93% 29.86 in 5.0 mi Variable 3.5 mph - N/A   Unknown
6:20 AM 30.2 °F 25.4 °F 26.6 °F 86% 29.86 in 5.0 mi NNE 4.6 mph - N/A   Unknown
6:50 AM 30.2 °F 25.4 °F 26.6 °F 86% 29.86 in 4.3 mi North 4.6 mph - N/A   Unknown
7:20 AM 32.0 °F 26.4 °F 28.4 °F 87% 29.86 in 5.0 mi NNE 5.8 mph - N/A   Unknown
7:50 AM 33.8 °F 28.6 °F 28.4 °F 81% 29.86 in 5.6 mi NE 5.8 mph - N/A   Unknown
8:20 AM 35.6 °F 30.7 °F 28.4 °F 75% 29.86 in - NE 5.8 mph - N/A   Clear
8:50 AM 38 °F - 28 °F 57% 29.88 in 8 mi NE 9.2 mph - -   Scattered Clouds
8:50 AM 37.4 °F 31.4 °F 28.4 °F 70% 29.86 in - NE 8.1 mph - N/A   Clear
9:20 AM 39.2 °F 32.0 °F 28.4 °F 65% 29.89 in 6.2 mi ENE 11.5 mph - N/A   Partly Cloudy
9:50 AM 41.0 °F 34.7 °F 28.4 °F 61% 29.89 in 6.2 mi NE 10.4 mph - N/A   Scattered Clouds
10:20 AM 37.4 °F 29.3 °F 24.8 °F 60% 29.89 in 6.2 mi ENE 12.7 mph - N/A   Scattered Clouds
10:50 AM 39.2 °F 32.0 °F 26.6 °F 61% 29.89 in 6.2 mi ENE 11.5 mph - N/A   Mostly Cloudy
11:20 AM 39.2 °F 32.5 °F 26.6 °F 61% 29.89 in 6.2 mi ENE 10.4 mph - N/A   Mostly Cloudy
11:50 AM 39 °F - 26 °F 47% 29.90 in 7 mi NE 12.7 mph - -   Partly Cloudy
11:50 AM 39.2 °F 32.5 °F 24.8 °F 56% 29.89 in 6.2 mi NE 10.4 mph - N/A   Mostly Cloudy
12:20 PM 37.4 °F 29.8 °F 26.6 °F 65% 29.89 in 6.2 mi ENE 11.5 mph - N/A   Mostly Cloudy
12:50 PM 37.4 °F 29.8 °F 26.6 °F 65% 29.89 in 6.2 mi ENE 11.5 mph - N/A   Mostly Cloudy
1:20 PM 37.4 °F 31.4 °F 23.0 °F 56% 29.89 in 6.2 mi NE 8.1 mph - N/A   Mostly Cloudy
1:50 PM 39.2 °F 33.6 °F 24.8 °F 56% 29.92 in 6.2 mi NE 8.1 mph - N/A   Mostly Cloudy
2:20 PM 39.2 °F 33.0 °F 24.8 °F 56% 29.89 in 6.2 mi NE 9.2 mph - N/A   Mostly Cloudy
2:50 PM 39 °F - 24 °F 41% 29.91 in 11 mi NE 8.1 mph - -   Overcast
2:50 PM 39.2 °F 33.0 °F 23.0 °F 52% 29.89 in 6.2 mi NE 9.2 mph - N/A   Mostly Cloudy
3:20 PM 39.2 °F 32.5 °F 21.2 °F 49% 29.89 in 6.2 mi NE 10.4 mph - N/A   Mostly Cloudy
3:50 PM 39.2 °F 33.6 °F 21.2 °F 49% 29.92 in 6.2 mi NE 8.1 mph - N/A   Mostly Cloudy
4:20 PM 39.2 °F 33.6 °F 21.2 °F 49% 29.92 in 6.2 mi NNE 8.1 mph - N/A   Mostly Cloudy
4:50 PM 39.2 °F 33.6 °F 21.2 °F 49% 29.92 in 6.2 mi NNE 8.1 mph - N/A   Mostly Cloudy
5:20 PM 39.2 °F 33.0 °F 21.2 °F 49% 29.92 in 6.2 mi NE 9.2 mph - N/A   Mostly Cloudy
5:50 PM 39 °F - 22 °F 37% 29.93 in 13 mi NNE 10.4 mph - -   Overcast
5:50 PM 39.2 °F 33.6 °F 21.2 °F 49% 29.92 in 6.2 mi NE 8.1 mph - N/A   Mostly Cloudy
6:20 PM 37.4 °F 31.4 °F 19.4 °F 48% 29.92 in 6.2 mi ENE 8.1 mph - N/A   Mostly Cloudy
6:50 PM 37.4 °F 31.4 °F 19.4 °F 48% 29.92 in 6.2 mi NE 8.1 mph - N/A   Mostly Cloudy
7:20 PM 37.4 °F 31.4 °F 19.4 °F 48% 29.95 in 6.2 mi NE 8.1 mph - N/A   Mostly Cloudy
7:50 PM 37.4 °F 32.1 °F 19.4 °F 48% 29.95 in 6.2 mi NE 6.9 mph - N/A   Mostly Cloudy
8:20 PM 37.4 °F 31.4 °F 19.4 °F 48% 29.95 in 6.2 mi NE 8.1 mph - N/A   Mostly Cloudy
8:50 PM 37 °F - 22 °F 41% 29.96 in 14 mi NE 8.1 mph - -   Overcast
8:50 PM 37.4 °F 31.4 °F 21.2 °F 52% 29.95 in 6.2 mi NE 8.1 mph - N/A   Mostly Cloudy
9:20 PM 35.6 °F 29.9 °F 23.0 °F 60% 29.95 in 6.2 mi NE 6.9 mph - N/A   Mostly Cloudy
9:50 PM 35.6 °F 29.2 °F 23.0 °F 60% 29.95 in 6.2 mi NE 8.1 mph - N/A   Mostly Cloudy
10:20 PM 35.6 °F 29.9 °F 19.4 °F 52% 29.95 in 6.2 mi NE 6.9 mph - N/A   Mostly Cloudy
10:50 PM 35.6 °F 29.9 °F 19.4 °F 52% 29.95 in 6.2 mi NE 6.9 mph - N/A   Mostly Cloudy
11:20 PM 33.8 °F 29.6 °F 21.2 °F 60% 29.95 in 6.2 mi NE 4.6 mph - N/A   Mostly Cloudy
11:50 PM 33 °F - 23 °F 57% 29.94 in 12 mi NNE 4.6 mph - -   Mostly Cloudy
11:50 PM 33.8 °F 29.6 °F 23.0 °F 65% 29.95 in 6.2 mi NE 4.6 mph - N/A   Mostly Cloudy